(232636) = 2003 UY248 = 2004 XE186

Discovered at Socorro on 2003-10-25 by LINEAR.

Orbit

Orbit type: Main Belt

Note: WebGL enabled browser required.

epoch2023-02-25.0
epoch JD2460000.5
perihelion date2020-01-11.26270
perihelion JD2458859.76270
argument of perihelion (°)358.78559
ascending node (°)346.95732
inclination (°)5.66364
eccentricity0.1797590
perihelion distance (AU)2.5725454
Tisserand w.r.t. Jupiter3.2
ΔV w.r.t. Earth (km/sec)10.2
semimajor axis (AU)3.1363286
mean anomaly (°)202.42173
mean daily motion (°/day)0.17744820
aphelion distance (AU)3.700
period (years)5.55
P-vector [x]0.96922381
P-vector [y]-0.22502674
P-vector [z]-0.09984073
Q-vector [x]0.24517174
Q-vector [y]0.84561464
Q-vector [z]0.47415893
absolute magnitude16.18
phase slope0.15
uncertainty0
referenceMPO 745323
observations used296
oppositions16
arc length (days)11135
first opposition used1992
last opposition used2023
residual rms (arc-secs)0.74
perturbers coarse indicatorM-v
perturbers precise indicator003Ek
first observation date used1992-10-26.0
last observation date used2023-04-22.0
computer nameMPCLINUX
JD of orbit computation2456966.703968
perihelion JD uncertainty (days)6.0356E-05
argument of perihelion uncertainty (°)3.9318E-05
ascending node uncertainty (°)3.7779E-05
inclination uncertainty (°)6.2614E-06
eccentricity uncertainty 7.9813E-08
perihelion distance uncertainty (AU)2.5162E-07
Minimum Orbit Intersection Distances (in AU)
for orbit epoch: 2459600.5, reference: E2022-B04
Mercury2.18515
Venus1.84549
Earth1.56489
Mars1.18913
Jupiter1.7066
Saturn5.619
Uranus14.7062
Neptune26.8757

Observations

302 total observations over interval: 1992 10 26.12059 – 2023 04 22.333347
These data are available for download (format description).

Date (UT) J2000 RA J2000 Dec Magn Location Ref
1992 10 26.12059 01 15 42.70 +14 13 13.4   691 – Steward Observatory, Kitt Peak-Spacewatch MPS 175714
1992 10 26.14283 01 15 41.66 +14 13 08.8   691 – Steward Observatory, Kitt Peak-Spacewatch MPS 175714
1992 10 26.16354 01 15 40.68 +14 13 04.4 20.1 V 691 – Steward Observatory, Kitt Peak-Spacewatch MPS 175714
2003 09 21.30397 01 25 53.63 +13 24 37.0 19.6   644 – Palomar Mountain/NEAT MPS 130012
2003 09 21.36786 01 25 51.12 +13 24 34.9 19.7   644 – Palomar Mountain/NEAT MPS 130012
2003 09 21.43049 01 25 48.61 +13 24 32.8 19.6   644 – Palomar Mountain/NEAT MPS 130012
2003 10 17.28587 01 05 32.82 +12 30 50.7   699 – Lowell Observatory-LONEOS MPS 90696
2003 10 17.31576 01 05 31.21 +12 30 46.3   699 – Lowell Observatory-LONEOS MPS 90696
2003 10 25.23161 00 59 17.94 +12 05 29.3 19.8   704 – Lincoln Laboratory ETS, New Mexico MPS 89887
2003 10 25.24382 00 59 17.40 +12 05 25.8 20.0   704 – Lincoln Laboratory ETS, New Mexico MPS 89887
2003 10 25.25563 00 59 16.81 +12 05 23.2 20.3   704 – Lincoln Laboratory ETS, New Mexico MPS 89887
2003 10 26.29273 00 58 31.24 +12 02 01.9 20.9 V 691 – Steward Observatory, Kitt Peak-Spacewatch MPS 89887
2003 10 26.31970 00 58 30.02 +12 01 56.7 20.3 V 691 – Steward Observatory, Kitt Peak-Spacewatch MPS 89887
2003 10 26.35820 00 58 28.27 +12 01 49.2 20.6 V 691 – Steward Observatory, Kitt Peak-Spacewatch MPS 89887
2003 10 29.31713 00 56 24.05 +11 52 27.5 20.4   695 – Kitt Peak MPS 90696
2003 10 29.32587 00 56 23.68 +11 52 25.8 20.8   695 – Kitt Peak MPS 90696
2003 10 29.33513 00 56 22.95 +11 52 27.4 23.9   695 – Kitt Peak MPS 90696
2003 10 29.34388 00 56 22.91 +11 52 22.3 20.5   695 – Kitt Peak MPS 90696
2003 10 29.35262 00 56 22.55 +11 52 20.7 20.5   695 – Kitt Peak MPS 90696
2003 11 01.31963 00 54 27.33 +11 43 17.3 20.6   695 – Kitt Peak MPS 90696
2003 11 01.32837 00 54 26.99 +11 43 15.6 21.0   695 – Kitt Peak MPS 90696
2003 11 01.33711 00 54 26.65 +11 43 13.9 20.8   695 – Kitt Peak MPS 90696
2003 11 01.34585 00 54 26.32 +11 43 12.5 20.7   695 – Kitt Peak MPS 90696
2003 11 01.35460 00 54 25.98 +11 43 10.9 20.8   695 – Kitt Peak MPS 90696
2003 11 01.36346 00 54 25.64 +11 43 09.3 20.1 V 695 – Kitt Peak MPS 90696
2003 11 01.37220 00 54 25.30 +11 43 07.6 20.3 V 695 – Kitt Peak MPS 90696
2003 11 01.38095 00 54 24.90 +11 43 05.6 21.2 V 695 – Kitt Peak MPS 90696
2003 11 01.38969 00 54 24.62 +11 43 04.4 20.1 V 695 – Kitt Peak MPS 90696
2003 11 01.39980 00 54 24.27 +11 43 02.7 20.1 V 695 – Kitt Peak MPS 90696
2004 12 14.44548 07 54 11.28 +27 45 55.5 20.8 V 691 – Steward Observatory, Kitt Peak-Spacewatch MPS 130027
2004 12 14.47169 07 54 10.29 +27 45 58.9 20.3 V 691 – Steward Observatory, Kitt Peak-Spacewatch MPS 130027
2004 12 14.49720 07 54 09.24 +27 46 02.0 21.0 V 691 – Steward Observatory, Kitt Peak-Spacewatch MPS 130027
2004 12 19.41357 07 50 47.68 +27 57 16.9 21.0 V 691 – Steward Observatory, Kitt Peak-Spacewatch MPS 130027
2004 12 19.43975 07 50 46.50 +27 57 19.9 21.2 V 691 – Steward Observatory, Kitt Peak-Spacewatch MPS 130027
2004 12 19.47131 07 50 45.06 +27 57 24.4 21.1 V 691 – Steward Observatory, Kitt Peak-Spacewatch MPS 130027
2006 01 30.45730 11 29 09.80 +04 11 57.4 21.8 V 691 – Steward Observatory, Kitt Peak-Spacewatch MPS 161775
2006 01 30.47462 11 29 09.37 +04 11 59.0 21.5 V 691 – Steward Observatory, Kitt Peak-Spacewatch MPS 161775
2006 01 30.49194 11 29 08.94 +04 12 00.8 21.6 V 691 – Steward Observatory, Kitt Peak-Spacewatch MPS 161775
2006 02 07.45043 11 25 25.67 +04 28 53.2   691 – Steward Observatory, Kitt Peak-Spacewatch MPS 162778
2006 02 07.46778 11 25 25.09 +04 28 55.7   691 – Steward Observatory, Kitt Peak-Spacewatch MPS 162778
2006 02 07.48512 11 25 24.55 +04 28 58.0   691 – Steward Observatory, Kitt Peak-Spacewatch MPS 162778
2006 03 03.21934 11 09 37.46 +05 45 10.7   691 – Steward Observatory, Kitt Peak-Spacewatch MPS 166068
2006 03 03.23667 11 09 36.69 +05 45 14.5   691 – Steward Observatory, Kitt Peak-Spacewatch MPS 166068
2006 03 03.25402 11 09 35.90 +05 45 17.7   691 – Steward Observatory, Kitt Peak-Spacewatch MPS 166068
2006 03 23.27891 10 54 57.56 +06 54 34.2 22.0 V G96 – Mt. Lemmon Survey MPS 167063
2006 03 23.28644 10 54 57.31 +06 54 35.8 20.9 V G96 – Mt. Lemmon Survey MPS 167063
2006 03 23.29385 10 54 57.02 +06 54 37.0 21.0 V G96 – Mt. Lemmon Survey MPS 167063
2006 03 23.30130 10 54 56.70 +06 54 38.0 21.2 V G96 – Mt. Lemmon Survey MPS 167063
2008 09 25.15102 20 40 08.40 -21 22 29.4 20.3 V G96 – Mt. Lemmon Survey MPS 256642
2008 09 25.15712 20 40 08.36 -21 22 28.3 19.9 V G96 – Mt. Lemmon Survey MPS 256642
2008 09 25.16941 20 40 08.47 -21 22 25.8 20.0 V G96 – Mt. Lemmon Survey MPS 256642
2009 12 19.31186 04 12 47.59 +29 33 30.4 20.4 V 291 – LPL/Spacewatch II MPS 308608
2009 12 19.31620 04 12 47.36 +29 33 29.6 20.2 V 291 – LPL/Spacewatch II MPS 308608
2009 12 19.32039 04 12 47.17 +29 33 28.6 20.2 V 291 – LPL/Spacewatch II MPS 308608
2010 01 08.13013 04 02 16.08 +28 31 58.9 21.1 V G96 – Mt. Lemmon Survey MPS 310163
2010 01 08.13722 04 02 15.97 +28 31 57.5 20.7 V G96 – Mt. Lemmon Survey MPS 310163
2010 01 08.14436 04 02 15.79 +28 31 56.6 20.7 V G96 – Mt. Lemmon Survey MPS 310163
2010 01 08.15149 04 02 15.68 +28 31 55.5 20.7 V G96 – Mt. Lemmon Survey MPS 310163
2010 02 18.535983 04 12 15.94 +27 25 37.4   C51 – WISE MPS 371349
2010 02 18.668287 04 12 21.43 +27 25 35.0   C51 – WISE MPS 313094
2010 02 18.800591 04 12 26.98 +27 25 33.0   C51 – WISE MPS 313094
2010 02 18.932896 04 12 32.58 +27 25 30.2   C51 – WISE MPS 313094
2010 02 18.999111 04 12 35.39 +27 25 28.2   C51 – WISE MPS 313094
2010 02 19.065199 04 12 38.18 +27 25 27.4   C51 – WISE MPS 371349
2010 02 19.131416 04 12 41.06 +27 25 26.0   C51 – WISE MPS 313094
2010 02 19.197631 04 12 43.78 +27 25 25.2   C51 – WISE MPS 313094
2010 02 19.263719 04 12 46.65 +27 25 24.1   C51 – WISE MPS 313094
2010 02 19.329935 04 12 49.48 +27 25 21.9   C51 – WISE MPS 313094
2010 02 19.396023 04 12 52.28 +27 25 21.4   C51 – WISE MPS 313094
2010 02 19.528455 04 12 57.96 +27 25 18.4   C51 – WISE MPS 313094
2010 02 19.660759 04 13 03.63 +27 25 17.0   C51 – WISE MPS 313094
2010 02 19.793064 04 13 09.39 +27 25 14.3   C51 – WISE MPS 313094
2011 01 30.53388 09 30 44.595 +18 56 58.90 21.2 w F51 – Pan-STARRS 1, Haleakala MPS 379949
2011 01 30.54902 09 30 43.843 +18 57 01.62 21.1 w F51 – Pan-STARRS 1, Haleakala MPS 379949
2011 01 30.56644 09 30 42.981 +18 57 04.76 21.1 w F51 – Pan-STARRS 1, Haleakala MPS 379949
2011 01 30.58157 09 30 42.242 +18 57 07.47 21.2 w F51 – Pan-STARRS 1, Haleakala MPS 379949
2011 02 07.30381 09 24 22.32 +19 19 58.6 20.8 V G96 – Mt. Lemmon Survey MPS 371349
2011 02 07.31079 09 24 21.99 +19 19 59.5 20.4 V G96 – Mt. Lemmon Survey MPS 371349
2011 02 07.31788 09 24 21.63 +19 20 00.6 20.5 V G96 – Mt. Lemmon Survey MPS 371349
2011 02 07.32493 09 24 21.27 +19 20 02.0 20.6 V G96 – Mt. Lemmon Survey MPS 371349
2012 02 27.47540 12 52 40.870 -08 11 40.01 22.4 w F51 – Pan-STARRS 1, Haleakala MPS 415923
2012 02 27.50495 12 52 40.015 -08 11 37.82 22.3 w F51 – Pan-STARRS 1, Haleakala MPS 415923
2012 02 27.51971 12 52 39.585 -08 11 36.64 22.3 w F51 – Pan-STARRS 1, Haleakala MPS 415923
2012 03 23.35407 12 37 12.25 -07 09 43.2 20.7 V G96 – Mt. Lemmon Survey MPS 418278
2012 03 23.36237 12 37 11.85 -07 09 41.3 20.4 V G96 – Mt. Lemmon Survey MPS 418278
2012 03 23.36991 12 37 11.53 -07 09 39.6 20.8 V G96 – Mt. Lemmon Survey MPS 418278
2012 03 23.37751 12 37 11.17 -07 09 38.2 20.9 V G96 – Mt. Lemmon Survey MPS 418278
2012 03 30.30834 12 32 00.13 -06 44 47.6 20.5 V G96 – Mt. Lemmon Survey MPS 420063
2012 03 30.31360 12 31 59.84 -06 44 45.9 20.8 V G96 – Mt. Lemmon Survey MPS 420063
2012 03 30.31885 12 31 59.59 -06 44 44.6 21.2 V G96 – Mt. Lemmon Survey MPS 420063
2012 03 30.32409 12 31 59.41 -06 44 43.1 21.0 V G96 – Mt. Lemmon Survey MPS 420063
2012 04 14.34313 12 21 03.397 -05 48 21.35 21.6 w F51 – Pan-STARRS 1, Haleakala MPS 421709
2012 04 14.35800 12 21 02.796 -05 48 18.15 21.6 w F51 – Pan-STARRS 1, Haleakala MPS 421709
2012 04 14.37283 12 21 02.167 -05 48 14.81 21.6 w F51 – Pan-STARRS 1, Haleakala MPS 421709
2012 04 14.38766 12 21 01.533 -05 48 11.73 21.5 w F51 – Pan-STARRS 1, Haleakala MPS 421709
